Terminal Aerodrome Forecast
Issued by NWS

Home | Current Version | Previous Version | Text Only | Print | Product List | Glossary On
Versions: 1 2 3 4 5 6 7 8 9 10 11 12 13 14 15 16 17 18 19 20 21 22 23 24 25 26 27 28 29 30 31 32 33 34 35 36 37 38 39 40 41 42 43 44 45 46 47 48 49 50
000
FTAK31 PANC 280114 AAA
TAFASN
TAF AMD
PASN 280114Z 2801/2824 02025G35KT 2SM -SN BLSN SCT012 OVC017
      TEMPO 2801/2804 1/2SM SN FZFG
     FM281600 02032G40KT 4SM -SHSN BLSN OVC015
     FM282200 01028G38KT 5SM BLSN VCSH SCT015 BKN020=

USA.gov is the U.S. government's official web portal to all federal, state and local government web resources and services.